EW6762 Weather Reports


time (UTC)temp
F
wind
direction
speed
knots
gust
knots
rain 1hr
in
rain 24hr
in
rain mn
in
humidity
%
barometer
mb
20260905144308 93 180 3.5 7.8 0.00 0.00 0.00 70 1013.1
20260905143324 92 249 4.3 7.8 0.00 0.00 0.00 73 1013.1
20260905142342 91 216 3.5 7.0 0.00 0.00 0.00 74 1013.1
20260905141339 90 263 2.6 7.8 0.00 0.00 0.00 75 1013.2
20260905140309 90 262 5.2 8.7 0.00 0.00 0.00 75 1013.3
20260905135325 89 173 4.3 7.8 0.00 0.00 0.00 77 1013.2
20260905134335 88 267 2.6 9.6 0.00 0.00 0.00 78 1013.4
20260905133311 87 265 4.3 7.8 0.00 0.00 0.00 79 1013.5
20260905132349 87 199 2.6 6.1 0.00 0.00 0.00 82 1013.5
20260905131338 86 244 3.5 7.8 0.00 0.00 0.00 81 1013.5
20260905130312 85 215 3.5 10.4 0.00 0.00 0.00 83 1013.5
20260905125329 85 209 4.3 8.7 0.00 0.00 0.00 84 1013.6
20260905124318 84 231 4.3 10.4 0.00 0.00 0.00 85 1013.6
20260905123335 83 203 3.5 7.0 0.00 0.00 0.00 87 1013.6
20260905122308 83 220 2.6 7.0 0.00 0.00 0.00 87 1013.5
20260905121348 82 232 2.6 7.8 0.00 0.00 0.00 88 1013.5
20260905120321 82 249 4.3 7.0 0.00 0.00 0.00 88 1013.4
20260905115322 81 289 4.3 7.8 0.00 0.00 0.00 89 1013.3
20260905114316 81 244 3.5 7.0 0.00 0.00 0.00 89 1013.3
20260905113312 81 211 2.6 6.1 0.00 0.00 0.00 90 1013.2
20260905112316 81 257 3.5 7.8 0.00 0.00 0.00 90 1013.1
20260905111311 81 244 2.6 4.3 0.00 0.00 0.00 90 1013.0
20260905110314 81 233 2.6 4.3 0.00 0.00 0.00 90 1013.0
20260905105313 81 194 0.9 4.3 0.00 0.00 0.00 89 1012.8
20260905104338 81 211 1.7 4.3 0.00 0.00 0.00 89 1012.6
20260905103314 81 197 3.5 7.0 0.00 0.00 0.00 89 1012.5
20260905102317 81 213 2.6 5.2 0.00 0.00 0.00 89 1012.5
20260905101312 81 221 2.6 5.2 0.00 0.00 0.00 89 1012.4
20260905100335 81 225 3.5 6.1 0.00 0.00 0.00 89 1012.3
20260905095349 81 178 3.5 7.0 0.00 0.00 0.00 89 1012.4
20260905094328 81 219 3.5 6.1 0.00 0.00 0.00 88 1012.4
20260905093325 81 209 2.6 7.0 0.00 0.00 0.00 88 1012.4
20260905092319 81 215 2.6 7.8 0.00 0.00 0.00 88 1012.4
20260905091320 81 229 1.7 5.2 0.00 0.00 0.00 88 1012.4
20260905090314 82 222 2.6 6.1 0.00 0.00 0.00 88 1012.5
20260905085310 82 186 2.6 5.2 0.00 0.00 0.00 88 1012.5
20260905084309 82 214 1.7 4.3 0.00 0.00 0.00 88 1012.6
20260905083321 81 227 2.6 6.1 0.00 0.00 0.00 88 1012.6
20260905082343 81 186 2.6 6.1 0.00 0.00 0.00 88 1012.6
20260905081320 81 217 2.6 6.1 0.00 0.00 0.00 87 1012.8
20260905080313 81 248 3.5 6.1 0.00 0.00 0.00 87 1012.9
20260905075312 81 239 2.6 4.3 0.00 0.00 0.00 87 1013.0
20260905074311 80 217 2.6 5.2 0.00 0.00 0.00 86 1013.2
20260905073324 80 159 2.6 5.2 0.00 0.00 0.00 84 1013.2
20260905072324 80 236 2.6 3.5 0.00 0.00 0.00 84 1013.3
20260905071335 80 180 1.7 3.5 0.00 0.00 0.00 83 1013.4
20260905070313 80 202 1.7 5.2 0.00 0.00 0.00 83 1013.6
20260905065324 80 160 1.7 3.5 0.00 0.00 0.00 82 1013.8
20260905064327 80 180 1.7 3.5 0.00 0.00 0.00 82 1013.9
20260905063319 80 154 1.7 3.5 0.00 0.00 0.00 81 1013.9
20260905062319 80 160 1.7 4.3 0.00 0.00 0.00 80 1014.1
20260905061308 80 100 2.6 4.3 0.00 0.00 0.00 80 1014.3
20260905060327 80 114 1.7 4.3 0.00 0.00 0.00 79 1014.4
20260905055320 80 167 2.6 4.3 0.00 0.00 0.00 79 1014.5
20260905054341 80 192 2.6 5.2 0.00 0.00 0.00 79 1014.7
20260905053313 80 153 2.6 4.3 0.00 0.00 0.00 78 1014.8
20260905052331 80 150 2.6 4.3 0.00 0.00 0.00 78 1014.8
20260905051322 81 160 2.6 4.3 0.00 0.00 0.00 77 1015.0
20260905050315 81 143 2.6 6.1 0.00 0.00 0.00 77 1015.1
20260905045314 81 107 1.7 4.3 0.00 0.00 0.00 77 1015.5
20260905044310 81 128 2.6 5.2 0.00 0.00 0.00 77 1015.5
20260905043327 82 63 1.7 6.1 0.00 0.00 0.00 76 1015.8
20260905042347 82 149 2.6 6.1 0.00 0.00 0.00 75 1015.9
20260905041317 82 122 1.7 7.0 0.00 0.00 0.00 75 1016.0
20260905040335 83 96 3.5 10.4 0.00 0.00 0.00 74 1016.1
20260905035309 84 97 5.2 10.4 0.00 0.00 0.00 73 1016.6
20260905034323 84 81 6.1 16.5 0.00 0.00 0.00 74 1016.6
20260905033324 85 97 6.1 20.9 0.00 0.00 0.00 76 1016.6
20260905032340 86 113 4.3 12.2 0.00 0.00 0.00 80 1016.4
20260905031319 87 53 7.0 15.6 0.00 0.00 0.00 79 1016.3
20260905030313 87 243 1.7 6.1 0.00 0.00 0.00 79 1015.4
20260905025309 87 153 2.6 7.0 0.00 0.00 0.00 78 1015.0
20260905024312 87 188 3.5 6.1 0.00 0.00 0.00 77 1015.2
20260905023328 87 140 3.5 8.7 0.00 0.00 0.00 76 1015.3
20260905022331 88 145 2.6 7.0 0.00 0.00 0.00 75 1015.1
20260905021327 88 148 4.3 7.0 0.00 0.00 0.00 73 1015.2
20260905020325 88 146 2.6 5.2 0.00 0.00 0.00 72 1015.2
20260905015313 89 155 1.7 5.2 0.00 0.00 0.00 71 1015.3
20260905014308 89 161 2.6 5.2 0.00 0.00 0.00 71 1015.1
20260905013331 89 129 1.7 6.1 0.00 0.00 0.00 71 1015.0
20260905012346 89 5 2.6 5.2 0.00 0.00 0.00 71 1014.8
20260905011326 89 102 1.7 5.2 0.00 0.00 0.00 71 1014.5
20260905010322 89 114 2.6 6.1 0.00 0.00 0.00 71 1014.1
20260905005320 90 146 2.6 4.3 0.00 0.00 0.00 71 1014.1
20260905004321 90 133 1.7 5.2 0.00 0.00 0.00 71 1014.2
20260905003318 90 178 2.6 4.3 0.00 0.00 0.00 71 1014.3
20260905002312 91 197 2.6 6.1 0.00 0.00 0.00 71 1014.1
20260905001309 91 164 2.6 5.2 0.00 0.00 0.00 70 1014.3
20260905000333 91 211 2.6 3.5 0.00 0.00 0.00 70 1014.3
20260904235327 92 147 1.7 3.5 0.00 0.00 0.00 69 1014.1
20260904234330 92 202 1.7 4.3 0.00 0.00 0.00 68 1014.3
20260904233323 93 221 1.7 2.6 0.00 0.00 0.00 68 1014.2
20260904232319 93 171 1.7 3.5 0.00 0.00 0.00 67 1013.9
20260904231322 94 125 2.6 4.3 0.00 0.00 0.00 66 1013.8
20260904230322 94 217 2.6 6.1 0.00 0.00 0.00 65 1013.9
20260904225346 95 202 1.7 7.0 0.00 0.00 0.00 64 1014.0
20260904224341 95 159 2.6 7.0 0.00 0.00 0.00 63 1013.9
20260904223323 95 213 1.7 5.2 0.00 0.00 0.00 63 1014.0
20260904222315 96 177 2.6 7.0 0.00 0.00 0.00 62 1014.0
20260904221309 96 196 2.6 6.1 0.00 0.00 0.00 62 1014.1
20260904220332 96 240 4.3 7.8 0.00 0.00 0.00 61 1014.1
20260904215313 97 167 3.5 7.8 0.00 0.00 0.00 60 1014.1
20260904214353 99 206 2.6 7.0 0.00 0.00 0.00 60 1014.1
20260904213326 100 227 3.5 6.1 0.00 0.00 0.00 59 1014.1
20260904212322 100 148 3.5 7.8 0.00 0.00 0.00 58 1014.1
20260904211324 101 145 3.5 8.7 0.00 0.00 0.00 58 1013.8
20260904210320 101 183 4.3 7.0 0.00 0.00 0.00 58 1013.6
20260904205311 101 171 3.5 7.0 0.00 0.00 0.00 58 1013.6
20260904204309 100 207 4.3 7.8 0.00 0.00 0.00 59 1013.9
20260904203320 100 148 3.5 10.4 0.00 0.00 0.00 58 1014.1
20260904202317 100 63 3.5 7.0 0.00 0.00 0.00 59 1014.3
20260904201312 100 164 3.5 7.8 0.00 0.00 0.00 60 1014.4
20260904200331 100 196 4.3 8.7 0.00 0.00 0.00 59 1014.6
20260904195324 101 171 4.3 7.8 0.00 0.00 0.00 57 1014.8
20260904194326 101 207 5.2 7.8 0.00 0.00 0.00 59 1014.9
20260904193316 100 324 2.6 8.7 0.00 0.00 0.00 59 1015.2
20260904192335 99 103 2.6 7.0 0.00 0.00 0.00 62 1015.5
20260904191309 99 230 2.6 8.7 0.00 0.00 0.00 60 1015.6
20260904190330 99 257 2.6 8.7 0.00 0.00 0.00 60 1015.6
20260904185320 99 178 3.5 6.1 0.00 0.00 0.00 59 1015.9
20260904184316 99 234 4.3 7.0 0.00 0.00 0.00 61 1016.0
20260904183313 99 285 4.3 7.0 0.00 0.00 0.00 61 1016.2
20260904182325 99 225 2.6 7.0 0.00 0.00 0.00 59 1016.3
20260904181329 100 199 4.3 7.0 0.00 0.00 0.00 59 1016.4
20260904180318 100 86 2.6 5.2 0.00 0.00 0.00 61 1016.5
20260904175334 99 108 3.5 6.1 0.00 0.00 0.00 60 1016.7
20260904174325 98 169 2.6 7.0 0.00 0.00 0.00 62 1016.8
20260904173318 97 158 4.3 9.6 0.00 0.00 0.00 62 1016.9
20260904172343 97 232 4.3 6.1 0.00 0.00 0.00 61 1017.0
20260904171346 97 267 2.6 8.7 0.00 0.00 0.00 63 1017.1
20260904170319 97 185 3.5 7.0 0.00 0.00 0.00 62 1017.2
20260904165316 97 246 3.5 7.0 0.00 0.00 0.00 64 1017.2
20260904164352 96 261 2.6 7.0 0.00 0.00 0.00 64 1017.2
20260904163324 96 111 2.6 6.1 0.00 0.00 0.00 63 1017.3
20260904162319 96 197 3.5 7.0 0.00 0.00 0.00 63 1017.4
20260904161321 95 158 5.2 9.6 0.00 0.00 0.00 65 1017.4
20260904160315 95 219 5.2 7.8 0.00 0.00 0.00 66 1017.3
20260904155316 95 181 4.3 7.8 0.00 0.00 0.00 66 1017.5
20260904154323 94 175 4.3 8.7 0.00 0.00 0.00 68 1017.6
20260904153319 93 254 2.6 8.7 0.00 0.00 0.00 70 1017.7
20260904152314 93 186 3.5 7.8 0.00 0.00 0.00 70 1017.9
20260904151334 92 186 2.6 8.7 0.00 0.00 0.00 70 1018.0
20260904150327 92 190 3.5 7.8 0.00 0.00 0.00 71 1018.1
20260904145318 92 63 3.5 7.8 0.00 0.00 0.00 71 1018.1